Location: Brahman Valley
(40.6513°N, 111.8855°W)
Time: 02:49:41
(UTC+00:00)

Altair - All Passes

Search period start: 12 May 2021 00:00
Search period end: 22 May 2021 00:00
Orbit: 1501 x 1683 km, 47.2° (Epoch: 11 May)

Date Brightness Start Highest point End Pass type
(mag) Time Alt. Az. Time Alt. Az. Time Alt. Az.
12 May - 05:41:46 10° SSW 05:51:03 43° SE 06:00:21 10° ENE visible
12 May - 07:45:14 10° WSW 07:55:29 83° NNW 08:05:36 10° ENE visible
12 May - 09:51:14 10° W 10:01:16 60° N 10:11:02 10° ENE visible
12 May - 11:56:59 10° WNW 12:07:06 79° NNE 12:16:49 10° ESE daylight
12 May - 14:02:18 10° WNW 14:11:31 46° SW 14:20:24 10° SSE daylight
13 May - 05:16:51 10° SSW 05:25:56 40° SE 05:35:02 10° ENE visible
13 May - 07:20:00 10° WSW 07:30:13 86° NNW 07:40:22 10° ENE visible
13 May - 09:25:54 10° W 09:35:57 60° N 09:45:46 10° ENE visible
13 May - 11:31:44 10° WNW 11:41:51 76° NNE 11:51:35 10° ESE visible
13 May - 13:37:00 10° WNW 13:46:25 50° SW 13:55:27 10° SSE daylight
13 May - 15:46:21 10° WSW 15:49:17 12° WSW 15:52:12 10° SW daylight
14 May - 04:51:57 10° SSW 05:00:49 36° SE 05:09:42 10° ENE visible
14 May - 06:54:46 10° WSW 07:04:59 90° SSE 07:15:09 10° ENE visible
14 May - 09:00:34 10° W 09:10:38 61° N 09:20:30 10° ENE visible
14 May - 11:06:28 10° WNW 11:16:36 73° NNE 11:26:21 10° ESE visible
14 May - 13:11:44 10° WNW 13:21:17 54° SW 13:30:29 10° SSE daylight
14 May - 15:20:01 10° W 15:24:16 14° WSW 15:28:28 10° SSW daylight
15 May - 04:27:06 10° S 04:35:42 33° SE 04:44:21 10° ENE visible
15 May - 06:29:33 10° WSW 06:39:45 86° SSE 06:49:55 10° ENE visible
15 May - 08:35:15 10° W 08:45:20 61° N 08:55:14 10° ENE visible
15 May - 10:41:11 10° WNW 10:51:20 71° NNE 11:01:08 10° ESE visible
15 May - 12:46:27 10° WNW 12:56:09 58° SW 13:05:28 10° SE daylight
15 May - 14:54:03 10° W 14:59:15 16° WSW 15:04:22 10° SSW daylight
16 May - 04:02:19 10° S 04:10:36 30° SE 04:18:58 10° ENE visible
16 May - 06:04:22 10° SW 06:14:32 82° SSE 06:24:42 10° ENE visible
16 May - 08:09:56 10° W 08:20:01 62° N 08:29:58 10° ENE visible
16 May - 10:15:55 10° WNW 10:26:03 69° NNE 10:35:52 10° E visible
16 May - 12:21:11 10° WNW 12:31:00 62° SW 12:40:27 10° SE daylight
16 May - 14:28:17 10° W 14:34:13 18° WSW 14:40:04 10° SSW daylight
17 May - 03:37:33 10° S 03:45:30 28° SE 03:53:32 10° ENE visible
17 May - 05:39:11 10° SW 05:49:18 78° SSE 05:59:28 10° ENE visible
17 May - 07:44:36 10° W 07:54:43 63° N 08:04:42 10° ENE visible
17 May - 09:50:38 10° WNW 10:00:46 67° NNE 10:10:37 10° E visible
17 May - 11:55:55 10° WNW 12:05:50 67° SW 12:15:23 10° SE daylight
17 May - 14:02:37 10° W 14:09:12 20° SW 14:15:37 10° SSW daylight
18 May - 03:12:52 10° S 03:20:26 25° SE 03:28:05 10° ENE visible
18 May - 05:14:03 10° SW 05:24:06 74° SE 05:34:13 10° ENE visible
18 May - 07:19:17 10° W 07:29:24 65° NNW 07:39:26 10° ENE visible
18 May - 09:25:20 10° WNW 09:35:29 65° NNE 09:45:20 10° E visible
18 May - 11:30:39 10° WNW 11:40:40 71° SW 11:50:18 10° SE visible
18 May - 13:37:03 10° W 13:44:09 23° SW 13:51:04 10° S daylight
19 May - 02:48:14 10° S 02:55:22 23° SE 03:02:33 10° E daylight
19 May - 04:48:55 10° SW 04:58:54 70° SE 05:08:59 10° ENE visible
19 May - 06:53:58 10° W 07:04:06 66° NNW 07:14:11 10° ENE visible
19 May - 09:00:03 10° WNW 09:10:11 64° N 09:20:04 10° E visible
19 May - 11:05:24 10° WNW 11:15:29 75° SW 11:25:12 10° SE visible
19 May - 13:11:32 10° WNW 13:19:06 25° SW 13:26:28 10° S daylight
20 May - 02:23:41 10° SSE 02:30:18 20° SE 02:36:58 10° E daylight
20 May - 04:23:49 10° SW 04:33:43 65° SE 04:43:44 10° ENE visible
20 May - 06:28:41 10° W 06:38:48 68° NNW 06:48:55 10° ENE visible
20 May - 08:34:45 10° WNW 08:44:52 63° N 08:54:47 10° E visible
20 May - 10:40:09 10° WNW 10:50:17 80° SSW 11:00:05 10° SE visible
20 May - 12:46:05 10° WNW 12:54:02 28° SW 13:01:46 10° S daylight
21 May - 01:59:15 10° SSE 02:05:15 18° ESE 02:11:18 10° E daylight
21 May - 03:58:44 10° SW 04:08:32 61° SE 04:18:29 10° ENE visible
21 May - 06:03:23 10° W 06:13:31 70° NNW 06:23:40 10° ENE visible
21 May - 08:09:27 10° WNW 08:19:33 62° N 08:29:29 10° E visible
21 May - 10:14:54 10° WNW 10:25:05 84° SSW 10:34:56 10° SE visible
21 May - 12:20:39 10° WNW 12:28:57 31° SW 12:37:03 10° S daylight
